Regional Weather Roundup
Issued by NWS

Home | Current Version | Previous Version | Text Only | Print | Product List | Glossary Off
Versions: 1 2 3 4 5 6 7 8 9 10 11 12 13 14 15 16 17 18 19 20 21 22 23 24 25 26 27 28 29 30 31 32 33 34 35 36 37 38 39 40 41 42 43 44 45 46 47 48 49 50

000
ASUS43 KLSX 030759
RWRMO

WEATHER SUMMARY FOR MISSOURI
NATIONAL WEATHER SERVICE SPRINGFIELD MO
200 AM CST TUE MAR 03 2015

NOTE: "FAIR" INDICATES FEW OR NO CLOUDS BELOW 12,000 FEET WITH NO
       SIGNIFICANT WEATHER AND/OR OBSTRUCTIONS TO VISIBILITY.
       CURRENT SKY AND/OR WEATHER CONDITIONS ARE NOT AVAILABLE FOR
       CHILLICOTHE AND FARMINGTON.

MOZ001>031-035>038-043-044-053-054-030900-
...NORTHERN AND WESTERN MISSOURI...

CITY           SKY/WX    TMP DP  RH WIND       PRES   REMARKS
KANSAS CTY INT DRIZZLE   33  31  92 S14       29.88F WCI  23
KANSAS C DTWN  CLOUDY    34  31  88 S12       29.91F FOG     WCI  25
LEE`S SUMMIT   CLOUDY    33  30  88 S9        29.93F FOG     WCI  25
ST JOSEPH      CLOUDY    34  28  79 S10       29.89F WCI  26
CHILLICOTHE      N/A     34  25  69 S12G20    29.95F WCI  25
KIRKSVILLE     CLOUDY    30  24  78 SE17      29.95F WCI  18

$$
MOZ066>068-077>081-088>096-101>105-030900-
...SOUTHWEST MISSOURI...

CITY           SKY/WX    TMP DP  RH WIND       PRES   REMARKS
SPRINGFIELD    CLOUDY    34  26  72 S16       29.97F WCI  24
JOPLIN         CLOUDY    36  32  85 S14       29.96F WCI  27

$$
MOZ032>034-039>042-045>050-055>058-069>072-030900-
...CENTRAL MISSOURI...

CITY           SKY/WX    TMP DP  RH WIND       PRES   REMARKS
COLUMBIA       CLOUDY    33  23  66 SE9       29.99F WCI  25
JEFFERSON CITY CLOUDY    35  23  61 SE7       30.02F WCI  29
ROLLA          CLOUDY    33  25  72 S14       29.98F WCI  23
SEDALIA        CLOUDY    36  27  69 S13       29.97F WCI  27
OSAGE BEACH    CLOUDY    36  25  64 S13G20    30.00F WCI  27

$$
MOZ051-052-059>065-030900-
...EAST CENTRAL MISSOURI...

CITY           SKY/WX    TMP DP  RH WIND       PRES   REMARKS
ST LOUIS INTL  CLOUDY    33  22  63 SE10      30.07F WCI  25
SPIRIT OF STL  CLOUDY    32  22  66 E3        30.05F
ST CHARLES     CLOUDY    32  24  72 SE10      30.06F WCI  24

$$
MOZ072>076-082>087-097>100-106>115-030900-
...SOUTH CENTRAL AND SOUTHEAST MISSOURI...

CITY           SKY/WX    TMP DP  RH WIND       PRES   REMARKS
CAPE GIRARDEAU CLOUDY    35  26  69 SE7       30.12F WCI  29
FARMINGTON     CLOUDY    34  21  60 S8        30.09F WCI  27
POPLAR BLUFF   CLOUDY    35  24  64 E3        30.12F
WEST PLAINS    CLOUDY    31  25  78 S8        30.08F WCI  23

$$



USA.gov is the U.S. government's official web portal to all federal, state and local government web resources and services.